Location: Aldenham
(51.6667°N, 0.3500°W)
Time: 03:56:42
(UTC+00:00)

Altair - Pass Details

Date: 19 February 2026
Orbit: 1502 x 1682 km, 47.2° (Epoch: 7 March)

Event Time Altitude Azimuth Distance (km) Brightness Sun altitude
Rises 08:42:26 0° 278° (W) 4,680 9.5 12.2°
Reaches altitude 10° 08:45:29 10° 274° (W) 3,715 9.1 12.6°
Maximum altitude 08:54:37 58° 199° (SSW) 1,793 8.3 13.7°
Drops below altitude 10° 09:04:06 10° 124° (SE) 3,846 12.2 14.8°
Sets 09:07:19 0° 120° (ESE) 4,853 11.8 15.2°
